STARLINK-35687

Last updated on Fri Dec 19 2025 00:02:05 GMT+0000 (Coordinated Universal Time)

1 66524U 25265J 25352.42256689 .00041578 00000+0 99695-3 0 9997 2 66524 43.0026 21.3158 0001386 269.7138 90.3560 15.40707286 4630
UTC large
Height (km)
Speed (km/s)
/
Latitude / Longitude
Inclination (degrees)
Orbital Period (minutes)
Azimuth
Elevation
Range (km)
Doppler Factor

Next 0 passes for location: London (51.5072 / 0.1276)

Sorry there are no passes over London.